Regional Weather Roundup
Issued by NWS

Home | Current Version | Previous Version | Graphics & Text | Print | Product List | Glossary On
Versions: 1 2 3 4 5 6 7 8 9 10 11 12 13 14 15 16 17 18 19 20 21 22 23 24 25 26 27 28 29 30 31 32 33 34 35 36 37 38 39 40 41 42 43 44 45 46 47 48 49 50
000
ASUS43 KLMK 010810
RWRKY
KENTUCKY REGIONAL WEATHER ROUNDUP
NATIONAL WEATHER SERVICE LOUISVILLE KY
300 AM EST SUN MAR 01 2015

NOTE "FAIR" INDICATES FEW OR NO CLOUDS BELOW 12,000 FEET
WITH NO SIGNIFICANT WEATHER AND/OR OBSTRUCTIONS TO VISIBILITY.

KYZ001>023-026-027-061>063-070>075-010900-
WESTERN AND SOUTH CENTRAL KENTUCKY

CITY           SKY/WX    TMP DP  RH WIND       PRES   REMARKS
PADUCAH        MIX PCPN  33  22  63 NE6       30.38F WCI  28
HENDERSON      CLOUDY    32  21  64 NE7       30.41R WCI  26
OWENSBORO      CLOUDY    33  21  61 NE7       30.41F WCI  27
HOPKINSVILLE   CLOUDY    35  25  67 NE2       30.37S
BOWLING GREEN  CLOUDY    36  24  62 E5        30.38F WCI  32
GLASGOW        CLOUDY    35  26  70 E3        30.38F
$$

KYZ024-025-028>034-038-045-046-053-010900-
NORTH CENTRAL KENTUCKY

CITY           SKY/WX    TMP DP  RH WIND       PRES   REMARKS
LOUISVILLE/SDF CLOUDY    30  25  81 N3        30.41F
LOUISVILLE/LOU CLOUDY    30  25  81 NE6       30.41F WCI  24
FORT KNOX      MOCLDY    32  23  69 NE6       30.37F WCI  26
$$

KYZ035>037-039>044-047>052-055>060-089>105-010900-
NORTHEAST KENTUCKY

CITY           SKY/WX    TMP DP  RH WIND       PRES   REMARKS
LEXINGTON      CLOUDY    32  21  64 E7        30.40F WCI  26
COVINGTON      LGT SNOW  26  22  84 E5        30.41F FOG     WCI  20
FRANKFORT        N/A     31  23  72 NE3       30.40F
$$

KYZ054-064>069-076>088-106>120-010900-
SOUTHEAST KENTUCKY

CITY           SKY/WX    TMP DP  RH WIND       PRES   REMARKS
JACKSON        CLOUDY    36  17  46 E3        30.40F
LONDON         CLOUDY    34  25  69 CALM      30.39F
SOMERSET       CLOUDY    34  28  80 CALM      30.41F
MIDDLESBORO    CLOUDY    33  31  93 CALM      30.44S
MONTICELLO     CLOUDY    37  31  79 CALM      30.41F
$$



USA.gov is the U.S. government's official web portal to all federal, state and local government web resources and services.